owner,sensor,date,latitude,longitude,vertical_datum,wind_speed,wind_to_direction,wind_speed_of_gust,qcFlag 
WAVCIS,ioos:station:WAVCIS:CSI16:1,2010-10-01T00:00:00Z,29.4012,-89.0355,10.0,9.21,327.0,,'11111222,11111222,99999999' 
WAVCIS,ioos:station:WAVCIS:CSI16:1,2010-10-01T01:00:00Z,29.4012,-89.0355,10.0,9.06,323.0,,'11111222,11111222,99999999' 
WAVCIS,ioos:station:WAVCIS:CSI16:1,2010-10-01T02:00:00Z,29.4012,-89.0355,10.0,7.02,313.0,,'11111222,11111222,99999999' 
WAVCIS,ioos:station:WAVCIS:CSI16:1,2010-10-01T03:00:00Z,29.4012,-89.0355,10.0,6.21,312.0,,'11111222,11111222,99999999' 
WAVCIS,ioos:station:WAVCIS:CSI16:1,2010-10-01T04:00:00Z,29.4012,-89.0355,10.0,6.011,321.0,,'11111222,11111222,99999999' 
WAVCIS,ioos:station:WAVCIS:CSI16:1,2010-10-01T05:00:00Z,29.4012,-89.0355,10.0,7.17,330.0,,'11111222,11111222,99999999' 
WAVCIS,ioos:station:WAVCIS:CSI16:1,2010-10-01T06:00:00Z,29.4012,-89.0355,10.0,7.76,337.0,,'11111222,11111222,99999999' 
WAVCIS,ioos:station:WAVCIS:CSI16:1,2010-10-01T07:00:00Z,29.4012,-89.0355,10.0,9.62,350.0,,'11111222,11111222,99999999' 
WAVCIS,ioos:station:WAVCIS:CSI16:1,2010-10-01T08:00:00Z,29.4012,-89.0355,10.0,8.72,4.0,,'11111222,11111222,99999999' 
WAVCIS,ioos:station:WAVCIS:CSI16:1,2010-10-01T09:00:00Z,29.4012,-89.0355,10.0,6.75,2.0,,'11111222,11111222,99999999' 
WAVCIS,ioos:station:WAVCIS:CSI16:1,2010-10-01T10:00:00Z,29.4012,-89.0355,10.0,7.4,4.0,,'11111222,11111222,99999999' 
WAVCIS,ioos:station:WAVCIS:CSI16:1,2010-10-01T11:00:00Z,29.4012,-89.0355,10.0,7.17,8.0,,'11111222,11111222,99999999' 
WAVCIS,ioos:station:WAVCIS:CSI16:1,2010-10-01T12:00:00Z,29.4012,-89.0355,10.0,7.72,6.0,,'11111222,11111222,99999999' 
WAVCIS,ioos:station:WAVCIS:CSI16:1,2010-10-01T13:00:00Z,29.4012,-89.0355,10.0,9.28,2.0,,'11111222,11111222,99999999' 
WAVCIS,ioos:station:WAVCIS:CSI16:1,2010-10-01T14:00:00Z,29.4012,-89.0355,10.0,9.21,6.0,,'11111222,11111222,99999999' 
WAVCIS,ioos:station:WAVCIS:CSI16:1,2010-10-01T15:00:00Z,29.4012,-89.0355,10.0,7.97,5.0,,'11111222,11111222,99999999' 
WAVCIS,ioos:station:WAVCIS:CSI16:1,2010-10-01T16:00:00Z,29.4012,-89.0355,10.0,7.08,3.0,,'11111222,11111222,99999999' 
WAVCIS,ioos:station:WAVCIS:CSI16:1,2010-10-01T17:00:00Z,29.4012,-89.0355,10.0,6.41,354.0,,'11111222,11111222,99999999' 
WAVCIS,ioos:station:WAVCIS:CSI16:1,2010-10-01T18:00:00Z,29.4012,-89.0355,10.0,6.017,347.0,,'11111222,11111222,99999999' 
WAVCIS,ioos:station:WAVCIS:CSI16:1,2010-10-01T19:00:00Z,29.4012,-89.0355,10.0,6.113,342.0,,'11111222,11111222,99999999' 
WAVCIS,ioos:station:WAVCIS:CSI16:1,2010-10-01T20:00:00Z,29.4012,-89.0355,10.0,5.81,336.0,,'11111222,11111222,99999999' 
WAVCIS,ioos:station:WAVCIS:CSI16:1,2010-10-01T21:00:00Z,29.4012,-89.0355,10.0,4.587,322.0,,'11111222,11111222,99999999' 
WAVCIS,ioos:station:WAVCIS:CSI16:1,2010-10-01T22:00:00Z,29.4012,-89.0355,10.0,4.881,327.0,,'11111222,11111222,99999999' 
WAVCIS,ioos:station:WAVCIS:CSI16:1,2010-10-01T23:00:00Z,29.4012,-89.0355,10.0,4.189,314.0,,'11111222,11111222,99999999' 
WAVCIS,ioos:station:WAVCIS:CSI16:1,2010-10-02T00:00:00Z,29.4012,-89.0355,10.0,3.286,270.0,,'11111222,11111222,99999999' 
WAVCIS,ioos:station:WAVCIS:CSI16:1,2010-10-02T01:00:00Z,29.4012,-89.0355,10.0,6.448,314.0,,'11111222,11111222,99999999' 
WAVCIS,ioos:station:WAVCIS:CSI16:1,2010-10-02T02:00:00Z,29.4012,-89.0355,10.0,6.636,329.0,,'11111222,11111222,99999999' 
WAVCIS,ioos:station:WAVCIS:CSI16:1,2010-10-02T03:00:00Z,29.4012,-89.0355,10.0,8.75,347.0,,'11111222,11111222,99999999' 
WAVCIS,ioos:station:WAVCIS:CSI16:1,2010-10-02T04:00:00Z,29.4012,-89.0355,10.0,10.06,355.0,,'11111222,11111222,99999999' 
WAVCIS,ioos:station:WAVCIS:CSI16:1,2010-10-02T05:00:00Z,29.4012,-89.0355,10.0,9.27,3.0,,'11111222,11111222,99999999' 
WAVCIS,ioos:station:WAVCIS:CSI16:1,2010-10-02T06:00:00Z,29.4012,-89.0355,10.0,7.87,11.0,,'11111222,11111222,99999999' 
WAVCIS,ioos:station:WAVCIS:CSI16:1,2010-10-02T07:00:00Z,29.4012,-89.0355,10.0,8.45,15.0,,'11111222,11111222,99999999' 
WAVCIS,ioos:station:WAVCIS:CSI16:1,2010-10-02T08:00:00Z,29.4012,-89.0355,10.0,9.11,16.0,,'11111222,11111222,99999999' 
WAVCIS,ioos:station:WAVCIS:CSI16:1,2010-10-02T09:00:00Z,29.4012,-89.0355,10.0,8.67,7.0,,'11111222,11111222,99999999' 
WAVCIS,ioos:station:WAVCIS:CSI16:1,2010-10-02T10:00:00Z,29.4012,-89.0355,10.0,7.38,13.0,,'11111222,11111222,99999999' 
WAVCIS,ioos:station:WAVCIS:CSI16:1,2010-10-02T11:00:00Z,29.4012,-89.0355,10.0,8.12,4.0,,'11111222,11111222,99999999' 
WAVCIS,ioos:station:WAVCIS:CSI16:1,2010-10-02T12:00:00Z,29.4012,-89.0355,10.0,8.7,1.0,,'11111222,11111222,99999999' 
WAVCIS,ioos:station:WAVCIS:CSI16:1,2010-10-02T13:00:00Z,29.4012,-89.0355,10.0,8.73,5.0,,'11111222,11111222,99999999' 
WAVCIS,ioos:station:WAVCIS:CSI16:1,2010-10-02T14:00:00Z,29.4012,-89.0355,10.0,7.95,6.0,,'11111222,11111222,99999999' 
WAVCIS,ioos:station:WAVCIS:CSI16:1,2010-10-02T15:00:00Z,29.4012,-89.0355,10.0,8.03,5.0,,'11111222,11111222,99999999' 
WAVCIS,ioos:station:WAVCIS:CSI16:1,2010-10-02T16:00:00Z,29.4012,-89.0355,10.0,6.516,11.0,,'11111222,11111222,99999999' 
WAVCIS,ioos:station:WAVCIS:CSI16:1,2010-10-02T17:00:00Z,29.4012,-89.0355,10.0,6.192,4.0,,'11111222,11111222,99999999' 
WAVCIS,ioos:station:WAVCIS:CSI16:1,2010-10-02T18:00:00Z,29.4012,-89.0355,10.0,6.458,353.0,,'11111222,11111222,99999999' 
WAVCIS,ioos:station:WAVCIS:CSI16:1,2010-10-02T19:00:00Z,29.4012,-89.0355,10.0,6.622,351.0,,'11111222,11111222,99999999' 
WAVCIS,ioos:station:WAVCIS:CSI16:1,2010-10-02T20:00:00Z,29.4012,-89.0355,10.0,7.29,346.0,,'11111222,11111222,99999999' 
WAVCIS,ioos:station:WAVCIS:CSI16:1,2010-10-02T21:00:00Z,29.4012,-89.0355,10.0,7.73,351.0,,'11111222,11111222,99999999' 
WAVCIS,ioos:station:WAVCIS:CSI16:1,2010-10-02T22:00:00Z,29.4012,-89.0355,10.0,6.251,351.0,,'11111222,11111222,99999999' 
WAVCIS,ioos:station:WAVCIS:CSI16:1,2010-10-02T23:00:00Z,29.4012,-89.0355,10.0,6.112,0.0,,'11111222,11111222,99999999' 
WAVCIS,ioos:station:WAVCIS:CSI16:1,2010-10-03T00:00:00Z,29.4012,-89.0355,10.0,4.706,358.0,,'11111222,11111222,99999999' 
WAVCIS,ioos:station:WAVCIS:CSI16:1,2010-10-03T01:00:00Z,29.4012,-89.0355,10.0,2.217,8.0,,'11111222,11111222,99999999' 
WAVCIS,ioos:station:WAVCIS:CSI16:1,2010-10-03T02:00:00Z,29.4012,-89.0355,10.0,2.233,328.0,,'11111222,11111222,99999999' 
WAVCIS,ioos:station:WAVCIS:CSI16:1,2010-10-03T03:00:00Z,29.4012,-89.0355,10.0,2.564,292.0,,'11111222,11111222,99999999' 
WAVCIS,ioos:station:WAVCIS:CSI16:1,2010-10-03T04:00:00Z,29.4012,-89.0355,10.0,2.813,307.0,,'11111222,11111222,99999999' 
WAVCIS,ioos:station:WAVCIS:CSI16:1,2010-10-03T05:00:00Z,29.4012,-89.0355,10.0,4.572,330.0,,'11111222,11111222,99999999' 
WAVCIS,ioos:station:WAVCIS:CSI16:1,2010-10-03T06:00:00Z,29.4012,-89.0355,10.0,5.853,337.0,,'11111222,11111222,99999999' 
WAVCIS,ioos:station:WAVCIS:CSI16:1,2010-10-03T07:00:00Z,29.4012,-89.0355,10.0,7.73,4.0,,'11111222,11111222,99999999' 
WAVCIS,ioos:station:WAVCIS:CSI16:1,2010-10-03T08:00:00Z,29.4012,-89.0355,10.0,12.01,6.0,,'11111222,11111222,99999999' 
WAVCIS,ioos:station:WAVCIS:CSI16:1,2010-10-03T09:00:00Z,29.4012,-89.0355,10.0,10.46,12.0,,'11111222,11111222,99999999' 
WAVCIS,ioos:station:WAVCIS:CSI16:1,2010-10-03T10:00:00Z,29.4012,-89.0355,10.0,11.69,13.0,,'11111222,11111222,99999999' 
WAVCIS,ioos:station:WAVCIS:CSI16:1,2010-10-03T11:00:00Z,29.4012,-89.0355,10.0,12.45,7.0,,'11111222,11111222,99999999' 
WAVCIS,ioos:station:WAVCIS:CSI16:1,2010-10-03T12:00:00Z,29.4012,-89.0355,10.0,12.69,2.0,,'11111222,11111222,99999999' 
WAVCIS,ioos:station:WAVCIS:CSI16:1,2010-10-03T13:00:00Z,29.4012,-89.0355,10.0,11.81,5.0,,'11111222,11111222,99999999' 
WAVCIS,ioos:station:WAVCIS:CSI16:1,2010-10-03T14:00:00Z,29.4012,-89.0355,10.0,12.04,5.0,,'11111222,11111222,99999999' 
WAVCIS,ioos:station:WAVCIS:CSI16:1,2010-10-03T15:00:00Z,29.4012,-89.0355,10.0,10.96,6.0,,'11111222,11111222,99999999' 
WAVCIS,ioos:station:WAVCIS:CSI16:1,2010-10-03T16:00:00Z,29.4012,-89.0355,10.0,9.71,6.0,,'11111222,11111222,99999999' 
WAVCIS,ioos:station:WAVCIS:CSI16:1,2010-10-03T17:00:00Z,29.4012,-89.0355,10.0,9.24,0.0,,'11111222,11111222,99999999' 
WAVCIS,ioos:station:WAVCIS:CSI16:1,2010-10-03T18:00:00Z,29.4012,-89.0355,10.0,9.78,351.0,,'11111222,11111222,99999999' 
WAVCIS,ioos:station:WAVCIS:CSI16:1,2010-10-03T19:00:00Z,29.4012,-89.0355,10.0,9.91,346.0,,'11111222,11111222,99999999' 
WAVCIS,ioos:station:WAVCIS:CSI16:1,2010-10-03T20:00:00Z,29.4012,-89.0355,10.0,10.23,346.0,,'11111222,11111222,99999999' 
WAVCIS,ioos:station:WAVCIS:CSI16:1,2010-10-03T21:00:00Z,29.4012,-89.0355,10.0,10.03,352.0,,'11111222,11111222,99999999' 
WAVCIS,ioos:station:WAVCIS:CSI16:1,2010-10-03T22:00:00Z,29.4012,-89.0355,10.0,10.34,344.0,,'11111222,11111222,99999999' 
WAVCIS,ioos:station:WAVCIS:CSI16:1,2010-10-03T23:00:00Z,29.4012,-89.0355,10.0,9.34,346.0,,'11111222,11111222,99999999' 
WAVCIS,ioos:station:WAVCIS:CSI16:1,2010-10-04T00:00:00Z,29.4012,-89.0355,10.0,10.16,357.0,,'11111222,11111222,99999999' 
WAVCIS,ioos:station:WAVCIS:CSI16:1,2010-10-04T01:00:00Z,29.4012,-89.0355,10.0,9.61,10.0,,'11111222,11111222,99999999' 
WAVCIS,ioos:station:WAVCIS:CSI16:1,2010-10-04T02:00:00Z,29.4012,-89.0355,10.0,10.88,10.0,,'11111222,11111222,99999999' 
WAVCIS,ioos:station:WAVCIS:CSI16:1,2010-10-04T03:00:00Z,29.4012,-89.0355,10.0,11.43,7.0,,'11111222,11111222,99999999' 
WAVCIS,ioos:station:WAVCIS:CSI16:1,2010-10-04T04:00:00Z,29.4012,-89.0355,10.0,11.51,17.0,,'11111222,11111222,99999999' 
WAVCIS,ioos:station:WAVCIS:CSI16:1,2010-10-04T05:00:00Z,29.4012,-89.0355,10.0,9.9,17.0,,'11111222,11111222,99999999' 
WAVCIS,ioos:station:WAVCIS:CSI16:1,2010-10-04T06:00:00Z,29.4012,-89.0355,10.0,9.6,19.0,,'11111222,11111222,99999999' 
WAVCIS,ioos:station:WAVCIS:CSI16:1,2010-10-04T07:00:00Z,29.4012,-89.0355,10.0,10.93,14.0,,'11111222,11111222,99999999' 
WAVCIS,ioos:station:WAVCIS:CSI16:1,2010-10-04T08:00:00Z,29.4012,-89.0355,10.0,7.9,25.0,,'11111222,11111222,99999999' 
WAVCIS,ioos:station:WAVCIS:CSI16:1,2010-10-04T09:00:00Z,29.4012,-89.0355,10.0,7.63,19.0,,'11111222,11111222,99999999' 
WAVCIS,ioos:station:WAVCIS:CSI16:1,2010-10-04T10:00:00Z,29.4012,-89.0355,10.0,4.347,33.0,,'11111222,11111222,99999999' 
WAVCIS,ioos:station:WAVCIS:CSI16:1,2010-10-04T11:00:00Z,29.4012,-89.0355,10.0,6.037,21.0,,'11111222,11111222,99999999' 
WAVCIS,ioos:station:WAVCIS:CSI16:1,2010-10-04T12:00:00Z,29.4012,-89.0355,10.0,6.053,17.0,,'11111222,11111222,99999999' 
WAVCIS,ioos:station:WAVCIS:CSI16:1,2010-10-04T13:00:00Z,29.4012,-89.0355,10.0,7.66,14.0,,'11111222,11111222,99999999' 
WAVCIS,ioos:station:WAVCIS:CSI16:1,2010-10-04T14:00:00Z,29.4012,-89.0355,10.0,7.76,13.0,,'11111222,11111222,99999999' 
WAVCIS,ioos:station:WAVCIS:CSI16:1,2010-10-04T15:00:00Z,29.4012,-89.0355,10.0,7.43,11.0,,'11111222,11111222,99999999' 
WAVCIS,ioos:station:WAVCIS:CSI16:1,2010-10-04T16:00:00Z,29.4012,-89.0355,10.0,6.952,11.0,,'11111222,11111222,99999999' 
WAVCIS,ioos:station:WAVCIS:CSI16:1,2010-10-04T17:00:00Z,29.4012,-89.0355,10.0,7.3,10.0,,'11111222,11111222,99999999' 
WAVCIS,ioos:station:WAVCIS:CSI16:1,2010-10-04T18:00:00Z,29.4012,-89.0355,10.0,7.65,359.0,,'11111222,11111222,99999999' 
WAVCIS,ioos:station:WAVCIS:CSI16:1,2010-10-04T19:00:00Z,29.4012,-89.0355,10.0,7.97,3.0,,'11111222,11111222,99999999' 
WAVCIS,ioos:station:WAVCIS:CSI16:1,2010-10-04T20:00:00Z,29.4012,-89.0355,10.0,9.07,4.0,,'11111222,11111222,99999999' 
WAVCIS,ioos:station:WAVCIS:CSI16:1,2010-10-04T21:00:00Z,29.4012,-89.0355,10.0,9.22,0.0,,'11111222,11111222,99999999' 
WAVCIS,ioos:station:WAVCIS:CSI16:1,2010-10-04T22:00:00Z,29.4012,-89.0355,10.0,9.0,357.0,,'11111222,11111222,99999999' 
WAVCIS,ioos:station:WAVCIS:CSI16:1,2010-10-04T23:00:00Z,29.4012,-89.0355,10.0,9.09,6.0,,'11111222,11111222,99999999' 
WAVCIS,ioos:station:WAVCIS:CSI16:1,2010-10-05T00:00:00Z,29.4012,-89.0355,10.0,8.85,358.0,,'11111222,11111222,99999999' 
WAVCIS,ioos:station:WAVCIS:CSI16:1,2010-10-05T01:00:00Z,29.4012,-89.0355,10.0,9.93,5.0,,'11111222,11111222,99999999' 
WAVCIS,ioos:station:WAVCIS:CSI16:1,2010-10-05T02:00:00Z,29.4012,-89.0355,10.0,10.79,5.0,,'11111222,11111222,99999999' 
WAVCIS,ioos:station:WAVCIS:CSI16:1,2010-10-05T03:00:00Z,29.4012,-89.0355,10.0,11.18,6.0,,'11111222,11111222,99999999' 
WAVCIS,ioos:station:WAVCIS:CSI16:1,2010-10-05T04:00:00Z,29.4012,-89.0355,10.0,7.63,16.0,,'11111222,11111222,99999999' 
WAVCIS,ioos:station:WAVCIS:CSI16:1,2010-10-05T05:00:00Z,29.4012,-89.0355,10.0,9.57,17.0,,'11111222,11111222,99999999' 
WAVCIS,ioos:station:WAVCIS:CSI16:1,2010-10-05T06:00:00Z,29.4012,-89.0355,10.0,7.2,18.0,,'11111222,11111222,99999999' 
WAVCIS,ioos:station:WAVCIS:CSI16:1,2010-10-05T07:00:00Z,29.4012,-89.0355,10.0,8.07,17.0,,'11111222,11111222,99999999' 
WAVCIS,ioos:station:WAVCIS:CSI16:1,2010-10-05T08:00:00Z,29.4012,-89.0355,10.0,7.53,20.0,,'11111222,11111222,99999999' 
WAVCIS,ioos:station:WAVCIS:CSI16:1,2010-10-05T09:00:00Z,29.4012,-89.0355,10.0,5.444,26.0,,'11111222,11111222,99999999' 
WAVCIS,ioos:station:WAVCIS:CSI16:1,2010-10-05T10:00:00Z,29.4012,-89.0355,10.0,3.693,34.0,,'11111222,11111222,99999999' 
WAVCIS,ioos:station:WAVCIS:CSI16:1,2010-10-05T11:00:00Z,29.4012,-89.0355,10.0,4.48,25.0,,'11111222,11111222,99999999' 
WAVCIS,ioos:station:WAVCIS:CSI16:1,2010-10-05T12:00:00Z,29.4012,-89.0355,10.0,4.291,27.0,,'11111222,11111222,99999999' 
WAVCIS,ioos:station:WAVCIS:CSI16:1,2010-10-05T13:00:00Z,29.4012,-89.0355,10.0,5.036,23.0,,'11111222,11111222,99999999' 
WAVCIS,ioos:station:WAVCIS:CSI16:1,2010-10-05T14:00:00Z,29.4012,-89.0355,10.0,6.083,22.0,,'11111222,11111222,99999999' 
WAVCIS,ioos:station:WAVCIS:CSI16:1,2010-10-05T15:00:00Z,29.4012,-89.0355,10.0,7.17,17.0,,'11111222,11111222,99999999' 
WAVCIS,ioos:station:WAVCIS:CSI16:1,2010-10-05T16:00:00Z,29.4012,-89.0355,10.0,6.767,16.0,,'11111222,11111222,99999999' 
WAVCIS,ioos:station:WAVCIS:CSI16:1,2010-10-05T17:00:00Z,29.4012,-89.0355,10.0,8.37,14.0,,'11111222,11111222,99999999' 
WAVCIS,ioos:station:WAVCIS:CSI16:1,2010-10-05T18:00:00Z,29.4012,-89.0355,10.0,6.162,14.0,,'11111222,11111222,99999999' 
WAVCIS,ioos:station:WAVCIS:CSI16:1,2010-10-05T19:00:00Z,29.4012,-89.0355,10.0,7.35,13.0,,'11111222,11111222,99999999' 
WAVCIS,ioos:station:WAVCIS:CSI16:1,2010-10-05T20:00:00Z,29.4012,-89.0355,10.0,9.01,359.0,,'11111222,11111222,99999999' 
WAVCIS,ioos:station:WAVCIS:CSI16:1,2010-10-05T21:00:00Z,29.4012,-89.0355,10.0,8.78,357.0,,'11111222,11111222,99999999' 
WAVCIS,ioos:station:WAVCIS:CSI16:1,2010-10-05T22:00:00Z,29.4012,-89.0355,10.0,7.43,354.0,,'11111222,11111222,99999999' 
WAVCIS,ioos:station:WAVCIS:CSI16:1,2010-10-05T23:00:00Z,29.4012,-89.0355,10.0,6.945,332.0,,'11111222,11111222,99999999' 
WAVCIS,ioos:station:WAVCIS:CSI16:1,2010-10-06T00:00:00Z,29.4012,-89.0355,10.0,7.1,334.0,,'11111222,11111222,99999999' 
WAVCIS,ioos:station:WAVCIS:CSI16:1,2010-10-06T01:00:00Z,29.4012,-89.0355,10.0,7.06,338.0,,'11111222,11111222,99999999' 
WAVCIS,ioos:station:WAVCIS:CSI16:1,2010-10-06T02:00:00Z,29.4012,-89.0355,10.0,10.65,7.0,,'11111222,11111222,99999999' 
WAVCIS,ioos:station:WAVCIS:CSI16:1,2010-10-06T03:00:00Z,29.4012,-89.0355,10.0,10.19,13.0,,'11111222,11111222,99999999' 
WAVCIS,ioos:station:WAVCIS:CSI16:1,2010-10-06T04:00:00Z,29.4012,-89.0355,10.0,9.36,14.0,,'11111222,11111222,99999999' 
WAVCIS,ioos:station:WAVCIS:CSI16:1,2010-10-06T05:00:00Z,29.4012,-89.0355,10.0,7.83,17.0,,'11111222,11111222,99999999' 
WAVCIS,ioos:station:WAVCIS:CSI16:1,2010-10-06T06:00:00Z,29.4012,-89.0355,10.0,5.133,23.0,,'11111222,11111222,99999999' 
WAVCIS,ioos:station:WAVCIS:CSI16:1,2010-10-06T07:00:00Z,29.4012,-89.0355,10.0,4.585,32.0,,'11111222,11111222,99999999' 
WAVCIS,ioos:station:WAVCIS:CSI16:1,2010-10-06T08:00:00Z,29.4012,-89.0355,10.0,4.005,29.0,,'11111222,11111222,99999999' 
WAVCIS,ioos:station:WAVCIS:CSI16:1,2010-10-06T09:00:00Z,29.4012,-89.0355,10.0,4.722,24.0,,'11111222,11111222,99999999' 
WAVCIS,ioos:station:WAVCIS:CSI16:1,2010-10-06T10:00:00Z,29.4012,-89.0355,10.0,3.033,34.0,,'11111222,11111222,99999999' 
WAVCIS,ioos:station:WAVCIS:CSI16:1,2010-10-06T11:00:00Z,29.4012,-89.0355,10.0,4.059,24.0,,'11111222,11111222,99999999' 
WAVCIS,ioos:station:WAVCIS:CSI16:1,2010-10-06T12:00:00Z,29.4012,-89.0355,10.0,5.068,18.0,,'11111222,11111222,99999999' 
WAVCIS,ioos:station:WAVCIS:CSI16:1,2010-10-06T13:00:00Z,29.4012,-89.0355,10.0,3.252,27.0,,'11111222,11111222,99999999' 
WAVCIS,ioos:station:WAVCIS:CSI16:1,2010-10-06T14:00:00Z,29.4012,-89.0355,10.0,4.36,25.0,,'11111222,11111222,99999999' 
WAVCIS,ioos:station:WAVCIS:CSI16:1,2010-10-06T15:00:00Z,29.4012,-89.0355,10.0,5.915,13.0,,'11111222,11111222,99999999' 
WAVCIS,ioos:station:WAVCIS:CSI16:1,2010-10-06T16:00:00Z,29.4012,-89.0355,10.0,7.42,15.0,,'11111222,11111222,99999999' 
WAVCIS,ioos:station:WAVCIS:CSI16:1,2010-10-06T17:00:00Z,29.4012,-89.0355,10.0,7.15,13.0,,'11111222,11111222,99999999' 
WAVCIS,ioos:station:WAVCIS:CSI16:1,2010-10-06T18:00:00Z,29.4012,-89.0355,10.0,7.28,10.0,,'11111222,11111222,99999999' 
WAVCIS,ioos:station:WAVCIS:CSI16:1,2010-10-06T19:00:00Z,29.4012,-89.0355,10.0,6.725,12.0,,'11111222,11111222,99999999' 
WAVCIS,ioos:station:WAVCIS:CSI16:1,2010-10-06T20:00:00Z,29.4012,-89.0355,10.0,6.759,12.0,,'11111222,11111222,99999999' 
WAVCIS,ioos:station:WAVCIS:CSI16:1,2010-10-06T21:00:00Z,29.4012,-89.0355,10.0,6.064,352.0,,'11111222,11111222,99999999' 
WAVCIS,ioos:station:WAVCIS:CSI16:1,2010-10-06T22:00:00Z,29.4012,-89.0355,10.0,4.457,336.0,,'11111222,11111222,99999999' 
WAVCIS,ioos:station:WAVCIS:CSI16:1,2010-10-06T23:00:00Z,29.4012,-89.0355,10.0,3.106,314.0,,'11111222,11111222,99999999' 
WAVCIS,ioos:station:WAVCIS:CSI16:1,2010-10-07T00:00:00Z,29.4012,-89.0355,10.0,2.719,292.0,,'11111222,11111222,99999999' 
WAVCIS,ioos:station:WAVCIS:CSI16:1,2010-10-07T01:00:00Z,29.4012,-89.0355,10.0,3.199,273.0,,'11111222,11111222,99999999' 
WAVCIS,ioos:station:WAVCIS:CSI16:1,2010-10-07T02:00:00Z,29.4012,-89.0355,10.0,2.582,267.0,,'11111222,11111222,99999999' 
WAVCIS,ioos:station:WAVCIS:CSI16:1,2010-10-07T03:00:00Z,29.4012,-89.0355,10.0,3.746,263.0,,'11111222,11111222,99999999' 
WAVCIS,ioos:station:WAVCIS:CSI16:1,2010-10-07T04:00:00Z,29.4012,-89.0355,10.0,3.12,276.0,,'11111222,11111222,99999999' 
WAVCIS,ioos:station:WAVCIS:CSI16:1,2010-10-07T05:00:00Z,29.4012,-89.0355,10.0,3.663,305.0,,'11111222,11111222,99999999' 
WAVCIS,ioos:station:WAVCIS:CSI16:1,2010-10-07T06:00:00Z,29.4012,-89.0355,10.0,5.269,324.0,,'11111222,11111222,99999999' 
WAVCIS,ioos:station:WAVCIS:CSI16:1,2010-10-07T07:00:00Z,29.4012,-89.0355,10.0,5.132,343.0,,'11111222,11111222,99999999' 
WAVCIS,ioos:station:WAVCIS:CSI16:1,2010-10-07T08:00:00Z,29.4012,-89.0355,10.0,5.935,339.0,,'11111222,11111222,99999999' 
WAVCIS,ioos:station:WAVCIS:CSI16:1,2010-10-07T09:00:00Z,29.4012,-89.0355,10.0,4.858,12.0,,'11111222,11111222,99999999' 
WAVCIS,ioos:station:WAVCIS:CSI16:1,2010-10-07T10:00:00Z,29.4012,-89.0355,10.0,2.441,30.0,,'11111222,11111222,99999999' 
WAVCIS,ioos:station:WAVCIS:CSI16:1,2010-10-07T11:00:00Z,29.4012,-89.0355,10.0,4.657,13.0,,'11111222,11111222,99999999' 
WAVCIS,ioos:station:WAVCIS:CSI16:1,2010-10-07T12:00:00Z,29.4012,-89.0355,10.0,6.82,356.0,,'11111222,11111222,99999999' 
WAVCIS,ioos:station:WAVCIS:CSI16:1,2010-10-07T13:00:00Z,29.4012,-89.0355,10.0,8.01,3.0,,'11111222,11111222,99999999' 
WAVCIS,ioos:station:WAVCIS:CSI16:1,2010-10-07T14:00:00Z,29.4012,-89.0355,10.0,7.1,2.0,,'11111222,11111222,99999999' 
WAVCIS,ioos:station:WAVCIS:CSI16:1,2010-10-07T15:00:00Z,29.4012,-89.0355,10.0,7.26,2.0,,'11111222,11111222,99999999' 
WAVCIS,ioos:station:WAVCIS:CSI16:1,2010-10-07T16:00:00Z,29.4012,-89.0355,10.0,6.255,1.0,,'11111222,11111222,99999999' 
WAVCIS,ioos:station:WAVCIS:CSI16:1,2010-10-07T17:00:00Z,29.4012,-89.0355,10.0,6.267,0.0,,'11111222,11111222,99999999' 
WAVCIS,ioos:station:WAVCIS:CSI16:1,2010-10-07T18:00:00Z,29.4012,-89.0355,10.0,6.612,4.0,,'11111222,11111222,99999999' 
WAVCIS,ioos:station:WAVCIS:CSI16:1,2010-10-07T19:00:00Z,29.4012,-89.0355,10.0,5.597,355.0,,'11111222,11111222,99999999' 
WAVCIS,ioos:station:WAVCIS:CSI16:1,2010-10-07T20:00:00Z,29.4012,-89.0355,10.0,4.831,351.0,,'11111222,11111222,99999999' 
WAVCIS,ioos:station:WAVCIS:CSI16:1,2010-10-07T21:00:00Z,29.4012,-89.0355,10.0,3.821,334.0,,'11111222,11111222,99999999' 
WAVCIS,ioos:station:WAVCIS:CSI16:1,2010-10-07T22:00:00Z,29.4012,-89.0355,10.0,3.396,329.0,,'11111222,11111222,99999999' 
WAVCIS,ioos:station:WAVCIS:CSI16:1,2010-10-07T23:00:00Z,29.4012,-89.0355,10.0,2.082,302.0,,'11111222,11111222,99999999' 
WAVCIS,ioos:station:WAVCIS:CSI16:1,2010-10-08T00:00:00Z,29.4012,-89.0355,10.0,2.247,261.0,,'11111222,11111222,99999999' 
WAVCIS,ioos:station:WAVCIS:CSI16:1,2010-10-08T01:00:00Z,29.4012,-89.0355,10.0,2.951,251.0,,'11111222,11111222,99999999' 
WAVCIS,ioos:station:WAVCIS:CSI16:1,2010-10-08T02:00:00Z,29.4012,-89.0355,10.0,2.86,260.0,,'11111222,11111222,99999999' 
WAVCIS,ioos:station:WAVCIS:CSI16:1,2010-10-08T03:00:00Z,29.4012,-89.0355,10.0,2.556,251.0,,'11111222,11111222,99999999' 
WAVCIS,ioos:station:WAVCIS:CSI16:1,2010-10-08T04:00:00Z,29.4012,-89.0355,10.0,2.96,247.0,,'11111222,11111222,99999999' 
WAVCIS,ioos:station:WAVCIS:CSI16:1,2010-10-08T05:00:00Z,29.4012,-89.0355,10.0,3.905,258.0,,'11111222,11111222,99999999' 
WAVCIS,ioos:station:WAVCIS:CSI16:1,2010-10-08T06:00:00Z,29.4012,-89.0355,10.0,4.768,274.0,,'11111222,11111222,99999999' 
WAVCIS,ioos:station:WAVCIS:CSI16:1,2010-10-08T07:00:00Z,29.4012,-89.0355,10.0,4.742,278.0,,'11111222,11111222,99999999' 
WAVCIS,ioos:station:WAVCIS:CSI16:1,2010-10-08T08:00:00Z,29.4012,-89.0355,10.0,3.946,281.0,,'11111222,11111222,99999999' 
WAVCIS,ioos:station:WAVCIS:CSI16:1,2010-10-08T09:00:00Z,29.4012,-89.0355,10.0,3.922,301.0,,'11111222,11111222,99999999' 
WAVCIS,ioos:station:WAVCIS:CSI16:1,2010-10-08T10:00:00Z,29.4012,-89.0355,10.0,4.955,316.0,,'11111222,11111222,99999999' 
WAVCIS,ioos:station:WAVCIS:CSI16:1,2010-10-08T11:00:00Z,29.4012,-89.0355,10.0,4.947,330.0,,'11111222,11111222,99999999' 
WAVCIS,ioos:station:WAVCIS:CSI16:1,2010-10-08T12:00:00Z,29.4012,-89.0355,10.0,4.159,329.0,,'11111222,11111222,99999999' 
WAVCIS,ioos:station:WAVCIS:CSI16:1,2010-10-08T13:00:00Z,29.4012,-89.0355,10.0,3.8,321.0,,'11111222,11111222,99999999' 
WAVCIS,ioos:station:WAVCIS:CSI16:1,2010-10-08T14:00:00Z,29.4012,-89.0355,10.0,4.089,321.0,,'11111222,11111222,99999999' 
WAVCIS,ioos:station:WAVCIS:CSI16:1,2010-10-08T15:00:00Z,29.4012,-89.0355,10.0,3.64,319.0,,'11111222,11111222,99999999' 
WAVCIS,ioos:station:WAVCIS:CSI16:1,2010-10-08T16:00:00Z,29.4012,-89.0355,10.0,3.846,326.0,,'11111222,11111222,99999999' 
WAVCIS,ioos:station:WAVCIS:CSI16:1,2010-10-08T17:00:00Z,29.4012,-89.0355,10.0,3.748,315.0,,'11111222,11111222,99999999' 
WAVCIS,ioos:station:WAVCIS:CSI16:1,2010-10-08T18:00:00Z,29.4012,-89.0355,10.0,3.119,314.0,,'11111222,11111222,99999999' 
WAVCIS,ioos:station:WAVCIS:CSI16:1,2010-10-08T19:00:00Z,29.4012,-89.0355,10.0,3.235,321.0,,'11111222,11111222,99999999' 
WAVCIS,ioos:station:WAVCIS:CSI16:1,2010-10-08T20:00:00Z,29.4012,-89.0355,10.0,2.978,321.0,,'11111222,11111222,99999999' 
WAVCIS,ioos:station:WAVCIS:CSI16:1,2010-10-08T21:00:00Z,29.4012,-89.0355,10.0,2.451,312.0,,'11111222,11111222,99999999' 
WAVCIS,ioos:station:WAVCIS:CSI16:1,2010-10-11T18:00:00Z,29.4012,-89.0355,10.0,1.189,154.0,,'11111222,11111222,99999999' 
WAVCIS,ioos:station:WAVCIS:CSI16:1,2010-10-11T19:00:00Z,29.4012,-89.0355,10.0,0.758,226.0,,'11111222,11111222,99999999' 
WAVCIS,ioos:station:WAVCIS:CSI16:1,2010-10-11T20:00:00Z,29.4012,-89.0355,10.0,0.639,223.0,,'11111222,11111222,99999999' 
WAVCIS,ioos:station:WAVCIS:CSI16:1,2010-10-11T21:00:00Z,29.4012,-89.0355,10.0,2.09,141.0,,'11111222,11111222,99999999' 
WAVCIS,ioos:station:WAVCIS:CSI16:1,2010-10-11T22:00:00Z,29.4012,-89.0355,10.0,3.304,135.0,,'11111222,11111222,99999999' 
WAVCIS,ioos:station:WAVCIS:CSI16:1,2010-10-11T23:00:00Z,29.4012,-89.0355,10.0,4.926,151.0,,'11111222,11111222,99999999' 
WAVCIS,ioos:station:WAVCIS:CSI16:1,2010-10-12T00:00:00Z,29.4012,-89.0355,10.0,5.635,172.0,,'11111222,11111222,99999999' 
WAVCIS,ioos:station:WAVCIS:CSI16:1,2010-10-12T01:00:00Z,29.4012,-89.0355,10.0,5.02,173.0,,'11111222,11111222,99999999' 
WAVCIS,ioos:station:WAVCIS:CSI16:1,2010-10-12T02:00:00Z,29.4012,-89.0355,10.0,4.829,201.0,,'11111222,11111222,99999999' 